Glens Falls, NY

8:58 PM EDT on September 24, 2017 (GMT -0400)
Bennett Memorial

Weather History for KGFL - December, 2013

Change the Weather History Date:

Wednesday, December 4, 2013

  Actual Average Record
Temperature  
Mean Temperature 29 °F 30 °F  
Max Temperature 38 °F 39 °F 69 °F (1982)
Min Temperature 19 °F 21 °F -4 °F (1989)
Degree Days  
Heating Degree Days 36 35  
Month to date heating degree days 133 138  
Since 1 July heating degree days 1812 1836  
Cooling Degree Days 0 0  
Month to date cooling degree days 0 0  
Year to date cooling degree days 537 352  
Moisture  
Dew Point 22 °F    
Average Humidity 80    
Maximum Humidity 100    
Minimum Humidity 59    
Precipitation  
Precipitation 0.00 in 0.12 in 1.58 in (1950)
Month to date precipitation T 0.45  
Year to date precipitation 32.84 36.46  
Sea Level Pressure  
Sea Level Pressure 30.10 in    
Wind  
Wind Speed 1 mph (ENE)    
Max Wind Speed 5 mph    
Max Gust Speed 6 mph    
Visibility 5 miles    
Events Fog    
T = Trace of Precipitation, MM = Missing Value Source: NWS Daily Summary

Daily Weather History Graph

Daily Weather History Graph

Search for Another Location

Airport or City:

Trip Planner

Search our weather history database for the weather conditions in past years. The results will help you decide how hot, cold, wet, or windy it might be!

Date:

Astronomy

Dec. 04, 2013 Rise Set
Actual Time 7:10 AM EST 4:18 PM EST
Civil Twilight 6:38 AM EST 4:51 PM EST
Nautical Twilight 6:02 AM EST 5:26 PM EST
Astronomical Twilight 5:28 AM EST 6:01 PM EST
Moon 8:35 AM EST (12/4) 6:27 PM EST (12/4)
Length of Visible Light 10h 12m
Length of Day
9h 08m
Waxing Crescent, 4% of the Moon is Illuminated
Dec 4
Waxing Crescent
Dec 9
First Quarter
Dec 17
Full
Dec 25
Last Quarter
Jan 1
New

Hourly Weather History & Observations

Time (EST) Temp. Windchill Dew Point Humidity Pressure Visibility Wind Dir Wind Speed Gust Speed Precip Events Conditions
12:06 AM 24.8 °F - 21.2 °F 86% 30.00 in 2.5 mi Calm Calm - N/A   Partly Cloudy
12:09 AM 24.8 °F - 21.2 °F 86% 30.00 in 0.8 mi Calm Calm - N/A   Mist
12:18 AM 24.8 °F - 21.2 °F 86% 30.00 in 0.2 mi Calm Calm - N/A Fog Light Freezing Fog
12:39 AM 23.0 °F - 21.2 °F 93% 30.01 in 0.2 mi Calm Calm - N/A Fog Light Freezing Fog
12:53 AM 23.0 °F - 21.0 °F 92% 30.04 in 0.2 mi Calm Calm - N/A Fog Light Freezing Fog
12:59 AM 23.0 °F - 21.2 °F 93% 30.01 in 0.8 mi Calm Calm - N/A   Mist
1:01 AM 23.0 °F - 21.2 °F 93% 30.01 in 1.5 mi Calm Calm - N/A   Scattered Clouds
1:09 AM 23.0 °F - 21.2 °F 93% 30.01 in 2.0 mi Calm Calm - N/A   Partly Cloudy
1:16 AM 23.0 °F - 21.2 °F 93% 30.02 in 1.5 mi Calm Calm - N/A   Clear
1:20 AM 23.0 °F - 21.2 °F 93% 30.02 in 3.0 mi Calm Calm - N/A   Clear
1:40 AM 21.2 °F - 19.4 °F 93% 30.03 in 2.0 mi Calm Calm - N/A   Clear
1:53 AM 21.9 °F - 19.9 °F 92% 30.06 in 2.0 mi Calm Calm - N/A   Clear
2:03 AM 21.2 °F - 19.4 °F 93% 30.03 in 3.0 mi Calm Calm - N/A   Clear
2:53 AM 21.0 °F - 19.0 °F 92% 30.07 in 6.0 mi Calm Calm - N/A   Clear
3:53 AM 21.0 °F - 17.1 °F 85% 30.07 in 7.0 mi Calm Calm - N/A   Clear
4:53 AM 21.9 °F - 18.0 °F 85% 30.09 in 6.0 mi Calm Calm - N/A   Clear
5:53 AM 19.9 °F - 17.1 °F 89% 30.12 in 6.0 mi Calm Calm - N/A   Clear
6:53 AM 21.0 °F - 19.0 °F 92% 30.14 in 7.0 mi Calm Calm - N/A   Clear
7:53 AM 21.9 °F - 19.0 °F 89% 30.16 in 7.0 mi Calm Calm - N/A   Clear
8:53 AM 28.0 °F - 26.1 °F 92% 30.16 in 4.0 mi Calm Calm - N/A   Clear
9:25 AM 28.4 °F - 26.6 °F 93% 30.14 in 2.5 mi Calm Calm - N/A   Clear
9:53 AM 28.9 °F - 28.0 °F 96% 30.18 in 2.5 mi Calm Calm - N/A   Clear
10:02 AM 30.2 °F - 28.4 °F 93% 30.15 in 3.0 mi Calm Calm - N/A   Clear
10:53 AM 32.0 °F 28.7 °F 28.0 °F 85% 30.17 in 5.0 mi East 3.5 mph - N/A   Overcast
11:53 AM 35.1 °F - 27.0 °F 72% 30.15 in 9.0 mi Calm Calm - N/A   Mostly Cloudy
12:53 PM 37.0 °F - 26.1 °F 65% 30.14 in 10.0 mi Calm Calm - N/A   Partly Cloudy
1:53 PM 37.0 °F - 25.0 °F 62% 30.13 in 10.0 mi Calm Calm - N/A   Scattered Clouds
2:53 PM 37.9 °F 35.5 °F 25.0 °F 60% 30.14 in 10.0 mi ENE 3.5 mph - N/A   Overcast
3:53 PM 37.0 °F 33.3 °F 25.0 °F 62% 30.15 in 10.0 mi NE 4.6 mph - N/A   Clear
4:53 PM 30.9 °F - 25.0 °F 79% 30.18 in 10.0 mi Calm Calm - N/A   Partly Cloudy
5:53 PM 28.0 °F - 25.0 °F 88% 30.18 in 10.0 mi Calm Calm - N/A   Clear
6:53 PM 27.0 °F - 24.1 °F 89% 30.19 in 10.0 mi Calm Calm - N/A   Clear
7:53 PM 26.1 °F - 23.0 °F 88% 30.18 in 9.0 mi Calm Calm - N/A   Clear
8:53 PM 25.0 °F - 21.9 °F 88% 30.17 in 10.0 mi Calm Calm - N/A   Clear
9:53 PM 25.0 °F - 23.0 °F 92% 30.18 in 8.0 mi Calm Calm - N/A   Clear
10:53 PM 24.1 °F - 21.9 °F 91% 30.18 in 7.0 mi Calm Calm - N/A   Clear
11:53 PM 24.1 °F - 21.9 °F 91% 30.17 in 7.0 mi Calm Calm - N/A   Clear